| time (UTC) | temp F | wind direction | speed MPH | gust MPH | rain 1hr in | rain 24hr in | rain mn in | humidity % | barometer mb |
| 20260502190622 | 60 | 68 | 3.0 | 8.0 | 0.02 | 0.97 | 0.97 | 99 | 1008.4 |
| 20260502190120 | 60 | 86 | 3.0 | 9.0 | 0.02 | 0.97 | 0.97 | 99 | 1008.2 |
| 20260502185615 | 60 | 35 | 3.0 | 5.0 | 0.02 | 0.97 | 0.97 | 99 | 1008.3 |
| 20260502185112 | 60 | 65 | 2.0 | 2.0 | 0.02 | 0.96 | 0.96 | 99 | 1008.1 |
| 20260502184608 | 60 | 22 | 2.0 | 3.0 | 0.07 | 0.96 | 0.96 | 99 | 1008.0 |
| 20260502184103 | 60 | 251 | 0.0 | 5.0 | 0.09 | 0.96 | 0.96 | 99 | 1007.8 |
| 20260502183600 | 60 | 184 | 0.0 | 2.0 | 0.09 | 0.95 | 0.95 | 99 | 1007.8 |
| 20260502183056 | 60 | 49 | 1.0 | 5.0 | 0.05 | 0.94 | 0.94 | 99 | 1008.0 |
| 20260502182551 | 60 | 18 | 2.0 | 3.0 | 0.02 | 0.93 | 0.93 | 99 | 1008.3 |
| 20260502182047 | 60 | 353 | 2.0 | 3.0 | 0.02 | 0.93 | 0.93 | 99 | 1008.2 |
| 20260502181545 | 60 | 30 | 4.0 | 6.0 | 0.00 | 0.93 | 0.93 | 99 | 1008.4 |
| 20260502181044 | 60 | 339 | 2.0 | 3.0 | 0.00 | 0.93 | 0.93 | 99 | 1008.4 |
| 20260502180541 | 60 | 120 | 1.0 | 5.0 | 0.00 | 0.93 | 0.93 | 99 | 1008.4 |
| 20260502170454 | 59 | 264 | 1.0 | 2.0 | 0.02 | 0.81 | 0.81 | 99 | 1008.8 |
| 20260502163937 | 59 | 13 | 2.0 | 3.0 | 0.02 | 0.80 | 0.80 | 99 | 1008.3 |
| 20260502163433 | 59 | 77 | 4.0 | 6.0 | 0.05 | 0.80 | 0.80 | 99 | 1008.4 |
| 20260502162931 | 59 | 32 | 9.0 | 10.0 | 0.05 | 0.80 | 0.80 | 99 | 1008.6 |
| 20260502162428 | 59 | 107 | 6.0 | 11.0 | 0.09 | 0.80 | 0.80 | 99 | 1008.4 |
| 20260502161926 | 59 | 10 | 3.0 | 7.0 | 0.12 | 0.79 | 0.79 | 99 | 1008.5 |
| 20260502161421 | 59 | 102 | 4.0 | 6.0 | 0.14 | 0.78 | 0.78 | 99 | 1008.6 |
| 20260502160919 | 59 | 76 | 1.0 | 5.0 | 0.19 | 0.77 | 0.77 | 99 | 1009.2 |
| 20260502160416 | 59 | 22 | 5.0 | 7.0 | 0.09 | 0.75 | 0.75 | 99 | 1009.3 |
| 20260502151855 | 59 | 358 | 2.0 | 5.0 | 0.09 | 0.70 | 0.70 | 99 | 1009.9 |
| 20260502151351 | 59 | 336 | 5.0 | 6.0 | 0.09 | 0.69 | 0.69 | 99 | 1009.9 |
| 20260502150849 | 59 | 35 | 2.0 | 5.0 | 0.09 | 0.69 | 0.69 | 99 | 1009.9 |
| 20260502150346 | 59 | 13 | 7.0 | 8.0 | 0.07 | 0.68 | 0.68 | 99 | 1009.8 |
| 20260502130734 | 61 | 265 | 1.0 | 1.0 | 0.12 | 0.39 | 0.39 | 99 | 1009.3 |
| 20260502130231 | 61 | 31 | 2.0 | 3.0 | 0.24 | 0.39 | 0.39 | 99 | 1009.1 |
| 20260502123717 | 61 | 11 | 0.0 | 1.0 | 0.17 | 0.32 | 0.32 | 99 | 1009.0 |
| 20260502123214 | 61 | 326 | 0.0 | 3.0 | 0.05 | 0.30 | 0.30 | 99 | 1008.8 |
| 20260502122710 | 61 | 98 | 3.0 | 3.0 | 0.02 | 0.29 | 0.29 | 99 | 1008.8 |
| 20260502122207 | 61 | 64 | 1.0 | 6.0 | 0.02 | 0.29 | 0.29 | 99 | 1008.5 |
| 20260502121705 | 61 | 358 | 1.0 | 3.0 | 0.05 | 0.29 | 0.29 | 99 | 1008.6 |
| 20260502121203 | 61 | 51 | 2.0 | 5.0 | 0.05 | 0.28 | 0.28 | 99 | 1008.7 |
| 20260502120659 | 61 | 5 | 3.0 | 5.0 | 0.02 | 0.28 | 0.28 | 99 | 1008.2 |
| 20260502120156 | 61 | 195 | 1.0 | 3.0 | 0.00 | 0.28 | 0.28 | 99 | 1008.8 |
| 20260502115654 | 61 | 339 | 0.0 | 5.0 | 0.00 | 0.28 | 0.28 | 99 | 1008.0 |
| 20260502115149 | 62 | 17 | 3.0 | 5.0 | 0.00 | 0.28 | 0.28 | 99 | 1007.9 |
| 20260502114646 | 61 | 59 | 0.0 | 2.0 | 0.00 | 0.28 | 0.28 | 99 | 1008.1 |
| 20260502114143 | 62 | 11 | 3.0 | 6.0 | 0.00 | 0.28 | 0.28 | 99 | 1008.1 |
| 20260502113640 | 62 | 64 | 2.0 | 7.0 | 0.00 | 0.28 | 0.28 | 99 | 1007.9 |
| 20260502113133 | 62 | 28 | 6.0 | 9.0 | 0.00 | 0.28 | 0.28 | 99 | 1008.1 |
| 20260502112630 | 62 | 35 | 0.0 | 3.0 | 0.00 | 0.28 | 0.28 | 99 | 1008.2 |
| 20260502112127 | 62 | 65 | 2.0 | 6.0 | 0.00 | 0.28 | 0.28 | 99 | 1008.2 |
| 20260502111625 | 62 | 349 | 0.0 | 3.0 | 0.00 | 0.28 | 0.28 | 99 | 1008.3 |
| 20260502111122 | 62 | 46 | 5.0 | 6.0 | 0.00 | 0.28 | 0.28 | 99 | 1008.3 |
| 20260502110620 | 62 | 9 | 0.0 | 5.0 | 0.00 | 0.28 | 0.28 | 99 | 1008.2 |
| 20260502110117 | 62 | 57 | 3.0 | 5.0 | 0.07 | 0.28 | 0.28 | 99 | 1008.4 |
| 20260502105615 | 62 | 88 | 1.0 | 2.0 | 0.12 | 0.28 | 0.28 | 99 | 1008.5 |
| 20260502105111 | 62 | 28 | 1.0 | 3.0 | 0.05 | 0.26 | 0.26 | 99 | 1008.4 |
| 20260502104609 | 62 | 344 | 0.0 | 0.0 | 0.05 | 0.26 | 0.26 | 99 | 1009.4 |
| 20260502104106 | 63 | 348 | 0.0 | 0.0 | 0.07 | 0.25 | 0.25 | 99 | 1009.2 |
| 20260502103603 | 63 | 350 | 0.0 | 0.0 | 0.07 | 0.25 | 0.25 | 99 | 1009.0 |
| 20260502103102 | 63 | 30 | 1.0 | 1.0 | 0.05 | 0.24 | 0.24 | 99 | 1009.0 |
| 20260502102558 | 63 | 233 | 0.0 | 1.0 | 0.05 | 0.24 | 0.24 | 99 | 1009.3 |
| 20260502102055 | 63 | 7 | 0.0 | 1.0 | 0.09 | 0.23 | 0.23 | 99 | 1008.6 |
| 20260502101553 | 63 | 61 | 0.0 | 3.0 | 0.12 | 0.23 | 0.23 | 99 | 1008.7 |
| 20260502101051 | 63 | 9 | 0.0 | 1.0 | 0.07 | 0.21 | 0.21 | 99 | 1008.8 |
| 20260502100549 | 63 | 177 | 0.0 | 0.0 | 0.07 | 0.21 | 0.21 | 99 | 1009.4 |
| 20260502091523 | 63 | 220 | 0.0 | 0.0 | 0.05 | 0.15 | 0.15 | 99 | 1009.3 |
| 20260502091021 | 63 | 225 | 0.0 | 0.0 | 0.02 | 0.14 | 0.14 | 99 | 1009.1 |
| 20260502090518 | 63 | 218 | 0.0 | 0.0 | 0.05 | 0.14 | 0.14 | 99 | 1009.4 |
| 20260502071412 | 63 | 199 | 0.0 | 0.0 | 0.00 | 0.05 | 0.05 | 99 | 1008.8 |
| 20260502070910 | 63 | 199 | 0.0 | 0.0 | 0.02 | 0.05 | 0.05 | 99 | 1009.1 |
| 20260502070408 | 63 | 196 | 0.0 | 0.0 | 0.02 | 0.05 | 0.05 | 99 | 1009.1 |
| 20260502065906 | 63 | 133 | 0.0 | 0.0 | 0.00 | 0.05 | 0.05 | 99 | 1009.2 |
| 20260502065404 | 63 | 210 | 0.0 | 0.0 | 0.00 | 0.05 | 0.05 | 99 | 1009.4 |
| 20260502064903 | 63 | 231 | 0.0 | 0.0 | 0.02 | 0.05 | 0.05 | 99 | 1009.7 |
| 20260502064400 | 63 | 230 | 0.0 | 0.0 | 0.05 | 0.05 | 0.05 | 99 | 1009.4 |
| 20260502063856 | 63 | 202 | 0.0 | 0.0 | 0.05 | 0.04 | 0.04 | 99 | 1009.6 |
| 20260502063355 | 63 | 217 | 0.0 | 0.0 | 0.07 | 0.04 | 0.04 | 99 | 1009.6 |
| 20260502062852 | 63 | 220 | 0.0 | 0.0 | 0.07 | 0.03 | 0.03 | 99 | 1009.4 |
| 20260502062349 | 63 | 219 | 0.0 | 0.0 | 0.02 | 0.02 | 0.02 | 99 | 1009.8 |
| 20260502061848 | 63 | 222 | 0.0 | 0.0 | 0.02 | 0.02 | 0.02 | 99 | 1009.8 |
| 20260502061345 | 63 | 223 | 0.0 | 0.0 | 0.07 | 0.02 | 0.02 | 99 | 1009.4 |
| 20260502060841 | 63 | 228 | 0.0 | 0.0 | 0.07 | 0.02 | 0.02 | 99 | 1009.7 |
| 20260502060336 | 63 | 221 | 0.0 | 0.0 | 0.02 | 0.01 | 0.01 | 99 | 1009.3 |
| 20260502055834 | 63 | 222 | 0.0 | 0.0 | 0.00 | 0.00 | 0.00 | 99 | 1009.4 |
| 20260502055332 | 63 | 215 | 0.0 | 0.0 | 0.00 | 0.00 | 0.00 | 99 | 1009.3 |
| 20260502054831 | 63 | 189 | 0.0 | 0.0 | 0.02 | 0.00 | 0.00 | 99 | 1008.8 |
| 20260502054328 | 63 | 5 | 0.0 | 0.0 | 0.02 | 0.00 | 0.00 | 99 | 1009.0 |
| 20260502053826 | 63 | 25 | 0.0 | 0.0 | 0.00 | 0.00 | 0.00 | 99 | 1009.1 |
| 20260502053323 | 63 | 286 | 0.0 | 0.0 | 0.00 | 0.00 | 0.00 | 99 | 1009.0 |
| 20260502052820 | 63 | 21 | 1.0 | 3.0 | 0.00 | 0.00 | 0.00 | 99 | 1009.2 |
| 20260502052318 | 63 | 47 | 0.0 | 1.0 | 0.00 | 0.00 | 0.00 | 99 | 1009.2 |
| 20260502051816 | 63 | 24 | 0.0 | 0.0 | 0.00 | 0.00 | 0.00 | 99 | 1009.4 |
| 20260502051315 | 63 | 30 | 0.0 | 0.0 | 0.00 | 0.00 | 0.00 | 99 | 1009.4 |
| 20260502050810 | 63 | 26 | 0.0 | 0.0 | 0.00 | 0.00 | 0.00 | 99 | 1009.7 |
| 20260502050306 | 63 | 26 | 0.0 | 0.0 | 0.00 | 0.00 | 0.00 | 99 | 1009.5 |
| 20260502045804 | 63 | 26 | 0.0 | 0.0 | 0.00 | 0.00 | 0.00 | 99 | 1009.7 |
| 20260502045300 | 63 | 27 | 0.0 | 0.0 | 0.00 | 0.00 | 0.00 | 99 | 1009.8 |
| 20260502044758 | 63 | 27 | 0.0 | 0.0 | 0.00 | 0.00 | 0.00 | 99 | 1010.1 |
| 20260502044254 | 63 | 27 | 0.0 | 0.0 | 0.00 | 0.00 | 0.00 | 99 | 1010.1 |
| 20260502043751 | 63 | 27 | 0.0 | 0.0 | 0.00 | 0.00 | 0.00 | 99 | 1010.0 |
| 20260502043249 | 63 | 26 | 0.0 | 0.0 | 0.00 | 0.00 | 0.00 | 99 | 1010.1 |
| 20260502042748 | 63 | 27 | 0.0 | 0.0 | 0.00 | 0.00 | 0.00 | 98 | 1010.2 |
| 20260502042245 | 63 | 27 | 0.0 | 0.0 | 0.00 | 0.00 | 0.00 | 98 | 1010.0 |
| 20260502041742 | 63 | 27 | 0.0 | 0.0 | 0.00 | 0.00 | 0.00 | 98 | 1010.1 |
| 20260502041240 | 63 | 26 | 0.0 | 0.0 | 0.00 | 0.00 | 0.00 | 98 | 1010.3 |
| 20260502040737 | 63 | 26 | 0.0 | 0.0 | 0.00 | 0.00 | 0.00 | 98 | 1010.2 |
| 20260502040233 | 63 | 26 | 0.0 | 0.0 | 0.00 | 0.00 | 0.00 | 98 | 1010.1 |
| 20260502035729 | 63 | 26 | 0.0 | 0.0 | 0.00 | 0.16 | 0.16 | 98 | 1009.8 |
| 20260502035227 | 63 | 26 | 0.0 | 0.0 | 0.00 | 0.16 | 0.16 | 98 | 1010.0 |
| 20260502034724 | 63 | 27 | 0.0 | 0.0 | 0.00 | 0.16 | 0.16 | 98 | 1010.1 |
| 20260502034222 | 63 | 26 | 0.0 | 0.0 | 0.00 | 0.16 | 0.16 | 98 | 1010.1 |
| 20260502033720 | 63 | 26 | 0.0 | 0.0 | 0.00 | 0.16 | 0.16 | 98 | 1010.2 |
| 20260502033218 | 63 | 30 | 0.0 | 0.0 | 0.00 | 0.16 | 0.16 | 98 | 1010.1 |
| 20260502032714 | 63 | 30 | 0.0 | 0.0 | 0.00 | 0.16 | 0.16 | 98 | 1010.2 |
| 20260502032210 | 63 | 35 | 0.0 | 0.0 | 0.00 | 0.16 | 0.16 | 98 | 1010.4 |
| 20260502031708 | 63 | 27 | 0.0 | 0.0 | 0.00 | 0.16 | 0.16 | 98 | 1010.6 |
| 20260502031206 | 63 | 25 | 0.0 | 0.0 | 0.00 | 0.16 | 0.16 | 98 | 1010.6 |
| 20260502030704 | 63 | 22 | 0.0 | 0.0 | 0.00 | 0.16 | 0.16 | 98 | 1010.7 |
| 20260502030202 | 63 | 22 | 0.0 | 0.0 | 0.00 | 0.16 | 0.16 | 98 | 1011.0 |
| 20260502025659 | 63 | 24 | 0.0 | 0.0 | 0.00 | 0.16 | 0.16 | 98 | 1010.7 |
| 20260502025156 | 64 | 24 | 0.0 | 0.0 | 0.00 | 0.16 | 0.16 | 98 | 1010.9 |
| 20260502024654 | 64 | 24 | 0.0 | 0.0 | 0.00 | 0.16 | 0.16 | 98 | 1011.1 |
| 20260502024152 | 64 | 22 | 0.0 | 0.0 | 0.00 | 0.16 | 0.16 | 98 | 1011.3 |
| 20260502023650 | 64 | 24 | 0.0 | 0.0 | 0.02 | 0.16 | 0.16 | 98 | 1011.2 |
| 20260502023147 | 64 | 24 | 0.0 | 0.0 | 0.00 | 0.15 | 0.15 | 98 | 1011.4 |
| 20260502022644 | 64 | 36 | 0.0 | 0.0 | 0.00 | 0.15 | 0.15 | 98 | 1011.5 |
| 20260502022141 | 64 | 24 | 0.0 | 0.0 | 0.00 | 0.15 | 0.15 | 98 | 1011.5 |
| 20260502021638 | 64 | 24 | 0.0 | 0.0 | 0.00 | 0.15 | 0.15 | 98 | 1011.7 |
| 20260502021135 | 64 | 24 | 0.0 | 0.0 | 0.00 | 0.15 | 0.15 | 98 | 1011.7 |
| 20260502020633 | 64 | 24 | 0.0 | 0.0 | 0.00 | 0.15 | 0.15 | 98 | 1011.6 |
| 20260502020129 | 64 | 21 | 0.0 | 0.0 | 0.00 | 0.15 | 0.15 | 98 | 1011.5 |
| 20260502015627 | 64 | 67 | 0.0 | 0.0 | 0.00 | 0.15 | 0.15 | 98 | 1011.3 |
| 20260502015123 | 64 | 93 | 0.0 | 0.0 | 0.00 | 0.15 | 0.15 | 98 | 1011.3 |
| 20260502014621 | 64 | 2 | 0.0 | 0.0 | 0.00 | 0.15 | 0.15 | 98 | 1011.1 |
| 20260502014118 | 64 | 351 | 0.0 | 2.0 | 0.00 | 0.15 | 0.15 | 98 | 1010.7 |
| 20260502013614 | 64 | 321 | 2.0 | 3.0 | 0.00 | 0.15 | 0.15 | 98 | 1010.8 |
| 20260502013109 | 64 | 49 | 0.0 | 1.0 | 0.00 | 0.15 | 0.15 | 98 | 1010.7 |
| 20260502012607 | 64 | 16 | 1.0 | 2.0 | 0.00 | 0.15 | 0.15 | 98 | 1010.7 |
| 20260502012105 | 64 | 119 | 0.0 | 3.0 | 0.00 | 0.15 | 0.15 | 98 | 1010.8 |
| 20260502011601 | 64 | 356 | 0.0 | 2.0 | 0.00 | 0.15 | 0.15 | 98 | 1010.6 |
| 20260502011057 | 64 | 83 | 1.0 | 2.0 | 0.00 | 0.15 | 0.15 | 98 | 1010.8 |
| 20260502010555 | 64 | 33 | 1.0 | 2.0 | 0.00 | 0.15 | 0.15 | 98 | 1010.4 |
| 20260502010051 | 64 | 32 | 0.0 | 2.0 | 0.02 | 0.15 | 0.15 | 98 | 1010.1 |
| 20260502005549 | 64 | 336 | 2.0 | 5.0 | 0.02 | 0.15 | 0.15 | 98 | 1009.8 |
| 20260502005047 | 64 | 35 | 2.0 | 2.0 | 0.00 | 0.15 | 0.15 | 97 | 1010.1 |
| 20260502004542 | 64 | 145 | 0.0 | 1.0 | 0.02 | 0.15 | 0.15 | 97 | 1010.1 |
| 20260502004039 | 65 | 156 | 0.0 | 2.0 | 0.05 | 0.15 | 0.15 | 97 | 1010.2 |
| 20260502003537 | 65 | 163 | 0.0 | 0.0 | 0.02 | 0.14 | 0.14 | 97 | 1010.3 |
| 20260502003034 | 65 | 348 | 0.0 | 1.0 | 0.02 | 0.14 | 0.14 | 97 | 1010.4 |
| 20260502002530 | 65 | 120 | 0.0 | 0.0 | 0.00 | 0.14 | 0.14 | 97 | 1010.5 |
| 20260502002027 | 65 | 119 | 0.0 | 0.0 | 0.00 | 0.14 | 0.14 | 97 | 1010.4 |
| 20260502001525 | 65 | 58 | 0.0 | 0.0 | 0.02 | 0.14 | 0.14 | 97 | 1010.2 |
| 20260502001022 | 65 | 262 | 0.0 | 0.0 | 0.05 | 0.14 | 0.14 | 97 | 1010.3 |
| 20260502000520 | 65 | 295 | 0.0 | 0.0 | 0.05 | 0.13 | 0.13 | 97 | 1010.2 |
| 20260502000017 | 65 | 23 | 0.0 | 2.0 | 0.05 | 0.13 | 0.13 | 97 | 1010.2 |
| 20260501235513 | 65 | 2 | 0.0 | 2.0 | 0.07 | 0.13 | 0.13 | 97 | 1010.2 |
| 20260501235008 | 65 | 309 | 0.0 | 0.0 | 0.02 | 0.12 | 0.12 | 97 | 1010.2 |
| 20260501234504 | 65 | 15 | 0.0 | 1.0 | 0.00 | 0.11 | 0.11 | 97 | 1010.3 |
| 20260501234003 | 65 | 110 | 0.0 | 2.0 | 0.02 | 0.11 | 0.11 | 97 | 1010.1 |
| 20260501233500 | 65 | 29 | 0.0 | 2.0 | 0.07 | 0.11 | 0.11 | 97 | 1010.0 |
| 20260501232956 | 66 | 63 | 0.0 | 5.0 | 0.09 | 0.11 | 0.11 | 97 | 1010.0 |
| 20260501232453 | 66 | 357 | 2.0 | 2.0 | 0.05 | 0.10 | 0.10 | 97 | 1009.8 |
| 20260501231950 | 66 | 354 | 0.0 | 1.0 | 0.02 | 0.09 | 0.09 | 97 | 1009.9 |
| 20260501231449 | 66 | 78 | 1.0 | 2.0 | 0.05 | 0.09 | 0.09 | 97 | 1009.8 |
| 20260501230946 | 66 | 351 | 1.0 | 5.0 | 0.02 | 0.09 | 0.09 | 97 | 1009.5 |
| 20260501230445 | 66 | 10 | 0.0 | 0.0 | 0.00 | 0.09 | 0.09 | 96 | 1009.6 |
| 20260501225942 | 66 | 34 | 0.0 | 2.0 | 0.02 | 0.09 | 0.09 | 96 | 1009.4 |
| 20260501225440 | 66 | 349 | 0.0 | 2.0 | 0.02 | 0.09 | 0.09 | 96 | 1009.7 |
| 20260501224936 | 66 | 11 | 3.0 | 5.0 | 0.00 | 0.08 | 0.08 | 96 | 1009.8 |
| 20260501224433 | 66 | 147 | 0.0 | 0.0 | 0.00 | 0.08 | 0.08 | 96 | 1009.7 |
| 20260501223930 | 66 | 157 | 0.0 | 2.0 | 0.02 | 0.08 | 0.08 | 96 | 1009.7 |
| 20260501223426 | 66 | 13 | 2.0 | 6.0 | 0.05 | 0.08 | 0.08 | 96 | 1009.6 |
| 20260501222922 | 66 | 85 | 1.0 | 5.0 | 0.05 | 0.08 | 0.08 | 96 | 1009.7 |
| 20260501222420 | 66 | 41 | 3.0 | 5.0 | 0.02 | 0.07 | 0.07 | 96 | 1009.9 |
| 20260501221916 | 66 | 26 | 3.0 | 6.0 | 0.00 | 0.07 | 0.07 | 96 | 1009.9 |
| 20260501221413 | 66 | 10 | 1.0 | 2.0 | 0.00 | 0.07 | 0.07 | 96 | 1009.8 |
| 20260501220910 | 66 | 123 | 0.0 | 0.0 | 0.02 | 0.07 | 0.07 | 96 | 1009.7 |
| 20260501220403 | 66 | 127 | 1.0 | 6.0 | 0.09 | 0.07 | 0.07 | 95 | 1009.6 |
| 20260501215858 | 66 | 177 | 0.0 | 3.0 | 0.07 | 0.06 | 0.06 | 95 | 1009.7 |
| 20260501215355 | 66 | 126 | 2.0 | 5.0 | 0.02 | 0.06 | 0.06 | 95 | 1009.6 |
| 20260501214851 | 66 | 102 | 1.0 | 3.0 | 0.00 | 0.05 | 0.05 | 95 | 1009.5 |
| 20260501214346 | 66 | 163 | 3.0 | 3.0 | 0.00 | 0.05 | 0.05 | 95 | 1009.6 |
| 20260501213842 | 66 | 112 | 0.0 | 0.0 | 0.00 | 0.05 | 0.05 | 95 | 1009.8 |
| 20260501213339 | 66 | 355 | 0.0 | 1.0 | 0.00 | 0.05 | 0.05 | 95 | 1009.9 |
| 20260501212834 | 66 | 57 | 3.0 | 6.0 | 0.00 | 0.05 | 0.05 | 95 | 1009.9 |
| 20260501212331 | 66 | 31 | 0.0 | 5.0 | 0.00 | 0.05 | 0.05 | 95 | 1009.8 |
| 20260501211828 | 66 | 63 | 2.0 | 3.0 | 0.00 | 0.05 | 0.05 | 94 | 1009.6 |
| 20260501211326 | 66 | 106 | 2.0 | 5.0 | 0.00 | 0.05 | 0.05 | 94 | 1009.6 |
| 20260501210822 | 66 | 39 | 0.0 | 7.0 | 0.02 | 0.05 | 0.05 | 94 | 1009.8 |
| 20260501210320 | 66 | 108 | 0.0 | 5.0 | 0.09 | 0.05 | 0.05 | 94 | 1010.0 |
| 20260501205815 | 66 | 97 | 2.0 | 6.0 | 0.09 | 0.05 | 0.05 | 94 | 1010.0 |
| 20260501205307 | 66 | 16 | 0.0 | 2.0 | 0.07 | 0.04 | 0.04 | 93 | 1010.1 |
| 20260501204804 | 66 | 229 | 0.0 | 0.0 | 0.02 | 0.03 | 0.03 | 93 | 1010.3 |
| 20260501204301 | 66 | 108 | 0.0 | 0.0 | 0.00 | 0.02 | 0.02 | 93 | 1010.1 |
| 20260501203756 | 66 | 344 | 0.0 | 1.0 | 0.00 | 0.02 | 0.02 | 93 | 1010.0 |
| 20260501203254 | 66 | 346 | 0.0 | 2.0 | 0.00 | 0.02 | 0.02 | 93 | 1010.1 |
| 20260501202751 | 66 | 67 | 1.0 | 3.0 | 0.00 | 0.02 | 0.02 | 93 | 1009.9 |
| 20260501202248 | 66 | 80 | 1.0 | 7.0 | 0.00 | 0.02 | 0.02 | 93 | 1009.8 |
| 20260501201745 | 67 | 71 | 3.0 | 5.0 | 0.00 | 0.02 | 0.02 | 92 | 1009.8 |
| 20260501201242 | 67 | 74 | 2.0 | 2.0 | 0.00 | 0.02 | 0.02 | 91 | 1009.8 |
| 20260501200738 | 67 | 62 | 0.0 | 2.0 | 0.02 | 0.02 | 0.02 | 91 | 1010.0 |
| 20260501200235 | 67 | 109 | 0.0 | 3.0 | 0.02 | 0.02 | 0.02 | 91 | 1010.1 |
| 20260501195733 | 67 | 102 | 1.0 | 2.0 | 0.05 | 0.02 | 0.02 | 90 | 1010.3 |
| 20260501195229 | 67 | 86 | 0.0 | 1.0 | 0.07 | 0.02 | 0.02 | 90 | 1010.4 |
| 20260501194725 | 67 | 240 | 0.0 | 1.0 | 0.07 | 0.01 | 0.01 | 89 | 1010.6 |
| 20260501194221 | 67 | 32 | 1.0 | 2.0 | 0.02 | 0.00 | 0.00 | 88 | 1010.7 |
| 20260501193717 | 67 | 57 | 3.0 | 3.0 | 0.00 | 0.00 | 0.00 | 88 | 1011.0 |
| 20260501193216 | 67 | 334 | 1.0 | 2.0 | 0.00 | 0.00 | 0.00 | 88 | 1010.9 |
| 20260501192713 | 67 | 344 | 1.0 | 3.0 | 0.00 | 0.00 | 0.00 | 88 | 1010.7 |
| 20260501192210 | 67 | 18 | 3.0 | 3.0 | 0.00 | 0.00 | 0.00 | 87 | 1010.7 |
| 20260501191707 | 67 | 327 | 3.0 | 5.0 | 0.00 | 0.00 | 0.00 | 87 | 1010.7 |
| 20260501191204 | 67 | 11 | 2.0 | 7.0 | 0.00 | 0.00 | 0.00 | 87 | 1011.0 |
| 20260501190700 | 67 | 12 | 3.0 | 7.0 | 0.00 | 0.00 | 0.00 | 86 | 1010.9 |